Wind_Speed
9 8 5 4 3 3 2 1 1 2 3 6 7 10 11 13 15 15 15 16 23 20 23 27 28 26 22 27 24 14 5 4 5 3 7 7 5 6 9 10 12 11 10
8 8 6 3 3 3 3 3 3 2 4 6 9 10 11 12 10 11 15 17 20 21 23 25 27 32 28 27 21 14 11 12 7 5 10 8 8 8 8 10 10 10 10
9 9 7 5 4 4 4 3 4 3 4 4 6 11 11 10 12 8 11 13 15 17 18 22 23 27 31 23 18 14 10 6 4 3 5 5 5 8 8 9 9 9 9
9 8 7 6 5 6 4 4 5 4 3 3 2 5 10 7 9 11 11 13 13 13 15 16 21 24 25 19 14 9 6 5 2 3 3 2 3 4 7 7 7 8 7
11 10 9 7 7 7 5 6 6 6 8 10 10 10 11 9 11 14 15 17 19 20 21 20 17 15 13 11 10 8 5 3 3 4 4 3 2 2 3 4 5 4 4
11 11 11 8 8 9 9 9 10 11 13 15 15 15 16 15 14 17 20 23 22 20 22 21 18 15 12 9 8 7 6 6 6 6 4 5 4 3 0 2 4 4 4
12 12 13 11 10 11 12 13 16 17 17 19 21 21 21 19 18 21 23 23 24 26 24 22 21 19 18 18 17 17 15 12 10 6 10 9 8 5 3 2 3 3 5
13 14 14 12 13 13 14 16 19 21 22 22 22 23 24 21 19 21 23 26 26 23 22 22 22 17 14 14 15 16 15 15 13 12 13 12 9 6 5 3 4 4 4
15 15 16 14 14 16 18 20 22 26 25 25 25 26 26 23 23 28 30 31 27 22 19 17 16 15 13 12 14 15 14 14 14 13 13 12 11 14 9 5 7 6 4
17 16 17 17 16 20 22 22 24 26 24 23 24 26 25 24 23 25 26 22 22 20 17 17 15 13 13 11 10 9 11 9 8 7 7 7 6 7 10 8 7 8 8
19 18 19 18 20 23 23 23 23 21 23 23 23 22 20 19 18 17 17 18 18 18 16 15 13 12 10 12 10 9 10 7 7 5 4 5 5 6 7 7 6 7 7
23 21 22 21 19 22 23 20 19 20 21 21 21 20 18 16 16 18 18 18 17 18 17 16 15 15 15 12 12 11 10 6 4 3 4 6 7 8 8 7 6 6 5
24 23 24 20 19 19 18 18 17 17 19 19 18 18 17 16 18 19 19 19 18 18 17 18 16 15 14 13 11 9 6 5 4 4 5 6 8 8 8 8 7 7 7
25 23 25 22 20 19 18 17 16 16 16 17 18 18 17 17 16 16 17 20 20 20 17 13 11 12 12 11 9 8 8 7 7 6 6 5 6 7 7 8 9 10 10
25 24 22 22 20 19 17 15 15 14 15 17 17 18 18 16 15 16 16 14 14 14 14 11 9 9 9 8 8 7 7 6 6 6 8 8 8 7 7 7 8 9 10
25 25 22 22 20 18 17 15 16 17 16 15 17 17 14 16 20 18 16 14 16 15 10 8 7 7 7 6 6 6 6 6 6 6 6 6 6 7 8 8 8 10 10
28 25 24 24 21 19 18 18 16 17 16 18 18 17 17 20 21 18 17 17 15 10 8 7 7 6 6 5 5 5 6 6 5 5 6 6 7 7 7 8 9 9 9
27 31 25 25 22 20 19 20 20 19 18 14 15 16 19 21 20 19 17 14 9 8 8 7 6 5 5 4 4 4 4 4 5 5 5 5 6 7 7 7 8 10 12
29 30 25 26 22 20 20 21 20 20 19 18 18 16 19 19 18 17 14 7 8 8 7 5 4 4 4 4 4 4 4 3 4 4 4 5 6 6 7 8 9 11 12
30 33 26 27 25 21 21 21 21 21 20 19 19 19 20 21 18 15 11 8 8 8 7 6 5 4 4 4 4 4 3 3 3 2 3 4 5 7 8 9 10 11 12
29 33 30 28 28 23 22 22 22 22 21 20 19 21 23 20 18 16 14 11 9 8 8 7 6 6 5 4 4 4 4 3 2 2 2 3 4 6 6 7 9 9 11
31 33 30 28 28 25 23 23 23 22 22 21 20 22 25 17 17 16 15 13 11 9 9 9 7 6 6 5 5 5 4 3 2 1 1 3 5 5 7 8 10 11 12
32 33 29 27 29 26 25 23 23 22 23 22 22 24 28 17 18 17 17 16 15 12 10 10 8 7 6 5 5 6 6 4 3 2 1 3 4 5 7 9 11 12 13
33 34 31 28 29 28 26 25 24 24 24 23 23 24 26 19 19 19 19 19 18 14 12 11 8 8 7 6 5 7 6 5 4 3 1 2 4 6 7 9 11 13 13
33 33 32 31 31 29 27 26 25 24 24 24 24 24 25 21 20 21 21 21 19 17 13 12 10 9 8 6 7 7 7 8 6 4 1 2 4 6 8 9 11 13 14
33 33 31 31 31 30 29 27 26 26 26 25 25 25 26 24 23 24 24 23 22 19 15 14 11 9 9 8 8 6 6 6 3 6 4 3 5 6 7 9 11 13 14
Wind_Direction
142 118 135 130 120 115 120 329 300 268 256 249 239 231 233 229 230 222 220 224 210 210 208 204 199 184 162 160 163 167 150 52 69 94 132 147 157 189 196 198 196 199 207
139 131 142 140 142 105 77 25 359 305 294 244 227 226 227 233 226 219 218 220 216 214 208 201 190 184 178 169 170 176 202 220 243 187 181 202 192 203 208 210 214 216 227
145 138 146 150 125 108 91 36 18 356 291 261 232 216 218 223 215 200 214 220 213 212 204 192 181 178 177 172 168 188 197 198 197 188 187 221 239 231 228 230 235 235 234
155 143 140 134 132 113 99 61 57 17 34 85 165 186 193 194 202 203 194 184 175 171 172 179 172 162 162 161 164 172 181 177 196 194 159 174 212 236 235 242 244 247 241
150 143 132 129 126 114 105 87 70 82 78 88 98 119 141 148 148 148 145 143 146 145 147 151 152 146 147 155 161 160 188 166 161 147 126 125 154 158 212 252 238 223 220
153 143 134 135 127 119 108 97 90 98 94 97 101 107 109 113 129 136 141 137 134 129 116 112 109 112 119 132 143 139 129 132 128 124 138 127 92 81 93 264 266 233 243
155 147 135 142 128 115 112 107 107 107 111 104 103 107 106 109 124 135 135 129 124 122 120 117 113 108 106 104 100 94 86 77 83 87 82 59 73 44 354 294 269 305 318
155 145 136 140 130 119 119 113 114 112 105 103 103 105 105 106 131 136 130 122 118 115 112 108 101 100 103 108 104 93 84 76 78 85 89 82 70 49 33 15 355 325 292
156 148 139 137 131 124 120 118 111 111 105 102 101 101 102 104 116 120 118 110 103 99 96 96 100 101 103 105 103 97 89 83 78 82 75 74 63 48 55 30 21 349 7
157 150 140 134 132 122 126 123 117 107 100 100 103 105 101 102 107 112 110 108 105 101 95 95 97 98 101 94 104 113 107 106 103 93 85 60 42 34 53 42 24 19 18
152 148 138 134 132 128 126 123 115 111 111 108 106 101 100 104 111 114 113 112 110 105 96 87 81 87 103 103 98 110 109 112 100 86 72 45 35 31 30 30 17 12 354
149 147 139 136 136 128 125 125 123 122 118 116 112 107 103 102 106 112 113 110 112 108 103 102 97 90 88 90 93 98 106 87 77 61 40 33 19 18 17 13 356 340 328
147 145 141 141 147 145 138 138 135 132 128 125 122 118 114 108 104 106 107 106 106 106 111 110 106 95 91 92 91 81 72 70 62 54 40 39 27 6 354 350 342 342 332
148 149 146 145 148 151 148 146 146 143 139 135 132 131 130 128 125 119 111 109 105 105 107 111 114 106 96 90 81 71 67 64 57 48 39 32 19 1 1 350 356 351 339
150 150 151 146 151 153 146 147 148 147 150 145 143 143 142 140 143 137 128 123 122 126 115 112 108 102 95 86 79 75 67 60 55 42 36 26 8 355 353 360 351 342 344
151 154 155 151 153 156 141 119 141 143 149 147 146 144 143 149 149 145 147 144 131 114 114 109 105 103 101 100 95 89 74 62 48 45 38 19 1 359 356 358 1 352 337
157 160 161 150 159 157 155 147 131 137 147 152 150 150 154 156 156 155 147 135 121 109 110 100 105 114 116 105 87 83 79 68 52 45 36 22 16 9 2 354 353 342 333
164 162 163 153 159 163 162 150 142 139 138 138 148 153 150 149 149 147 143 136 118 109 113 104 113 122 120 112 99 97 95 82 58 46 34 24 14 4 357 352 349 343 336
165 165 165 153 158 165 160 152 149 147 144 141 138 145 150 152 153 154 139 131 133 135 126 118 128 134 131 121 112 109 103 102 78 49 29 11 3 359 351 348 344 341 340
170 167 166 152 155 164 162 157 155 153 153 154 157 155 155 152 155 169 173 155 146 151 149 151 147 147 149 138 131 126 116 98 79 47 18 7 5 352 350 346 344 340 337
167 167 166 156 157 167 167 164 162 159 160 162 164 167 167 162 168 175 179 177 169 167 168 170 167 164 160 157 150 139 131 122 104 79 22 12 351 347 350 341 333 330 331
167 168 169 160 159 167 172 168 165 164 161 162 163 169 173 171 175 176 181 177 177 182 181 184 172 174 171 169 158 150 146 129 127 108 37 355 346 342 336 338 344 348 345
168 168 170 163 161 167 171 171 169 169 165 165 163 165 177 182 176 178 178 175 182 182 180 182 173 170 173 164 158 164 146 152 157 159 79 345 346 345 344 347 353 347 337
170 170 170 165 163 169 174 174 173 172 168 165 166 171 179 182 176 177 177 181 188 183 184 184 179 177 168 171 165 146 149 159 149 149 94 1 353 350 348 351 351 346 342
173 174 172 169 168 172 176 174 174 174 172 169 169 173 178 180 176 177 179 189 189 186 184 185 181 177 175 176 158 160 184 169 159 146 77 13 355 351 351 354 347 351 347
175 175 173 172 171 173 177 176 175 175 174 172 173 175 178 180 179 181 186 190 190 188 187 187 183 179 174 166 161 172 156 156 157 162 120 11 357 351 351 342 341 345 345
Height
754 757 761 763 765 765 766 768 769 770 770 770 770 772 773 775 778 780 782 785 788 791 794 796 799 803 808 811 817 822 823 823 826 832 833 837 839 840 840 841 843 843 844
756 758 762 764 766 765 766 768 768 768 767 767 768 770 772 774 776 778 781 783 786 789 790 793 797 799 806 810 816 820 823 825 826 828 831 833 835 837 838 840 842 842 843
757 759 763 765 766 767 768 769 768 767 766 766 767 768 770 773 775 777 779 782 785 787 790 793 795 799 804 811 812 819 823 823 824 826 829 831 832 834 836 837 838 839 840
757 760 763 766 767 768 769 770 768 768 767 767 766 767 769 771 774 777 780 782 786 789 792 796 799 802 807 808 814 819 821 823 824 825 828 830 833 834 835 837 837 838 839
757 760 763 766 768 769 771 770 769 770 770 768 768 769 771 774 775 778 782 785 788 792 796 799 804 807 810 813 817 819 822 823 825 828 830 832 833 834 836 837 838 838 839
758 760 763 767 769 769 772 772 772 772 773 771 772 774 775 777 780 782 785 789 793 797 801 805 808 810 813 817 820 822 824 826 828 830 832 833 835 836 837 838 839 839 838
758 761 763 768 770 771 773 774 774 774 776 777 778 778 780 783 785 787 791 794 797 802 806 809 812 816 819 823 825 827 829 830 831 832 833 835 836 837 838 838 838 838 838
759 762 764 769 771 772 775 777 777 778 780 781 783 785 787 790 791 793 796 800 804 809 812 815 818 823 826 828 829 830 832 833 834 835 836 837 838 839 839 839 839 839 840
760 763 765 770 773 774 777 780 781 782 785 787 789 791 793 796 798 801 803 808 812 816 820 822 824 827 830 831 831 832 834 837 837 837 838 839 840 841 840 839 840 840 839
760 764 767 770 774 775 779 782 785 787 790 793 795 798 800 803 806 809 811 814 817 820 824 826 828 829 830 832 834 836 837 839 840 842 842 842 842 841 841 842 842 842 843
760 765 768 772 776 778 781 786 789 791 794 798 801 804 807 810 812 815 817 819 821 824 827 829 831 832 833 835 837 838 840 841 842 843 843 844 844 844 844 844 844 844 844
759 765 768 773 778 781 784 789 793 795 798 802 805 809 813 815 817 818 820 822 825 827 831 834 837 838 838 838 839 840 842 843 844 844 844 845 845 845 845 845 845 844 844
759 765 769 774 780 784 787 791 795 797 800 804 808 812 816 819 821 823 825 827 829 832 834 837 840 841 841 841 842 843 844 845 845 845 846 847 847 848 847 846 845 844 843
759 765 769 774 780 785 789 792 795 799 802 805 808 813 818 822 825 827 828 830 832 835 838 840 842 843 843 845 846 847 847 847 847 848 848 849 849 849 848 847 845 844 842
759 765 770 774 780 786 789 793 796 800 803 806 809 813 817 821 826 828 831 834 836 838 840 843 845 846 847 848 849 849 849 850 850 850 850 850 850 849 848 847 846 844 843
758 765 769 773 781 786 789 792 796 800 804 808 811 814 819 822 826 830 833 836 838 841 844 845 846 847 848 849 850 850 851 851 852 852 852 851 851 850 849 848 847 845 843
755 763 769 772 780 786 790 793 797 803 807 811 814 817 819 822 827 831 835 838 841 843 845 847 848 849 850 851 851 851 852 852 853 853 853 852 852 851 850 849 848 846 844
755 760 767 770 778 785 790 793 797 802 807 813 817 819 822 825 829 833 837 840 843 845 846 847 849 850 851 851 851 852 853 853 854 854 854 854 854 853 852 851 849 848 845
753 759 765 769 777 784 789 792 797 802 807 812 818 822 825 828 831 835 839 841 843 845 846 848 849 851 852 852 853 853 854 854 855 856 856 855 855 854 853 852 850 848 846
750 755 763 766 775 783 788 792 796 801 806 811 816 821 825 829 832 836 839 841 843 845 846 848 850 851 852 853 854 854 855 855 856 857 857 856 856 855 854 852 850 849 846
747 754 760 765 772 780 786 790 795 799 804 809 814 819 822 827 830 834 838 840 842 844 845 847 849 850 851 853 853 854 855 855 856 857 857 856 856 855 854 852 851 848 847
742 750 758 762 769 777 784 788 792 797 801 807 813 818 822 826 829 833 836 838 841 843 844 846 848 850 851 852 853 854 855 855 856 857 857 857 856 856 854 852 851 849 847
738 746 755 760 765 775 782 786 790 795 799 805 810 815 820 824 827 830 833 836 839 841 843 846 847 849 851 852 853 853 854 855 856 857 857 857 857 855 854 853 851 850 847
733 741 749 755 762 770 777 782 787 793 797 802 807 812 817 821 824 828 831 834 837 840 842 845 846 848 850 851 851 853 855 855 856 857 857 857 857 856 855 854 852 850 847
729 737 743 750 757 765 773 779 784 790 795 798 804 808 814 818 821 825 829 832 835 838 841 844 846 847 849 850 851 853 853 855 856 857 858 858 857 857 855 854 852 850 848
725 732 739 746 752 760 768 774 780 786 791 795 800 805 809 814 818 822 825 829 833 836 840 843 845 847 849 850 852 852 854 855 855 856 856 857 857 856 855 854 852 850 847